Weather History for KDGW - December, 2013

Change the Weather History Date:

Tuesday, December 3, 2013

  Actual Average Record
Temperature  
Mean Temperature 25 °F 26 °F  
Max Temperature 43 °F 39 °F 55 °F (2001)
Min Temperature 6 °F 13 °F -4 °F (2006)
Degree Days  
Heating Degree Days 40 39  
Month to date heating degree days 82 117  
Since 1 July heating degree days 1819 1939  
Cooling Degree Days 0 0  
Month to date cooling degree days 0 0  
Year to date cooling degree days 739 486  
Moisture  
Dew Point 9 °F    
Average Humidity 69    
Maximum Humidity 85    
Minimum Humidity 53    
Precipitation  
Precipitation T in 0.01 in 0.07 in (2013)
Month to date precipitation T 0.04  
Year to date precipitation 9.48 13.03  
Sea Level Pressure  
Sea Level Pressure 29.76 in    
Wind  
Wind Speed 16 mph (NNW)    
Max Wind Speed 25 mph    
Max Gust Speed 32 mph    
Visibility 3 miles    
Events Snow    
T = Trace of Precipitation, MM = Missing Value Source: NWS Daily Summary

Daily Weather History Graph

Daily Weather History Graph

Search for Another Location

Airport or City:

Trip Planner

Search our weather history database for the weather conditions in past years. The results will help you decide how hot, cold, wet, or windy it might be!

Date:

Astronomy

Dec. 03, 2013 Rise Set
Actual Time 7:14 AM MST 4:27 PM MST
Civil Twilight 6:43 AM MST 4:59 PM MST
Nautical Twilight 6:07 AM MST 5:35 PM MST
Astronomical Twilight 5:33 AM MST 6:09 PM MST
Moon 7:46 AM MST (12/3) 5:34 PM MST (12/3)
Length of Visible Light 10h 16m
Length of Day
9h 13m
New Moon, 1% of the Moon is Illuminated
Dec 3
New Moon
Dec 9
First Quarter
Dec 17
Full
Dec 25
Last Quarter
Jan 1
New

Hourly Weather History & Observations

Time (MST) Temp. Windchill Dew Point Humidity Pressure Visibility Wind Dir Wind Speed Gust Speed Precip Events Conditions
12:53 AM 41.0 °F 32.5 °F 26.1 °F 55% 29.41 in 10.0 mi West 17.3 mph - N/A   Clear
1:53 AM 30.9 °F 24.3 °F 25.0 °F 79% 29.46 in 10.0 mi North 6.9 mph - N/A   Clear
2:53 AM 30.9 °F 25.2 °F 27.0 °F 85% 29.50 in 10.0 mi North 5.8 mph - N/A   Mostly Cloudy
3:25 AM 32.0 °F 26.4 °F 28.4 °F 87% 29.53 in 10.0 mi North 5.8 mph - N/A   Overcast
3:50 AM 28.4 °F 17.5 °F 24.8 °F 86% 29.54 in 4.0 mi North 13.8 mph 26.5 mph 0.00 in Snow Light Snow
3:53 AM 27.0 °F 14.7 °F 23.0 °F 85% 29.54 in 4.0 mi NNW 16.1 mph 26.5 mph 0.00 in Snow Light Snow
4:15 AM 24.8 °F 11.5 °F 19.4 °F 80% 29.57 in 5.0 mi NNW 17.3 mph 26.5 mph 0.00 in Snow Light Snow
4:29 AM 23.0 °F 10.1 °F 17.6 °F 80% 29.58 in 2.0 mi NNW 15.0 mph 24.2 mph 0.00 in Snow Light Snow
4:46 AM 21.2 °F 7.3 °F 15.8 °F 80% 29.60 in 4.0 mi NNW 16.1 mph - 0.00 in Snow Light Snow
4:53 AM 21.9 °F 8.2 °F 17.1 °F 82% 29.62 in 7.0 mi NNW 16.1 mph 23.0 mph 0.00 in Snow Light Snow
5:53 AM 19.9 °F 4.8 °F 12.9 °F 74% 29.64 in 8.0 mi NNW 18.4 mph 23.0 mph 0.00 in Snow Light Snow
6:53 AM 19.0 °F 5.0 °F 12.0 °F 74% 29.70 in 2.5 mi NNW 15.0 mph - 0.00 in Snow Light Snow
6:57 AM 19.4 °F 6.0 °F 12.2 °F 74% 29.65 in 1.8 mi NNW 13.8 mph - 0.00 in Snow Light Snow
7:10 AM 17.6 °F 3.7 °F 10.4 °F 73% 29.66 in 2.5 mi NNW 13.8 mph 23.0 mph 0.00 in Snow Light Snow
7:17 AM 17.6 °F 5.0 °F 10.4 °F 73% 29.67 in 5.0 mi NNW 11.5 mph - 0.00 in Snow Light Snow
7:29 AM 17.6 °F 2.7 °F 10.4 °F 73% 29.67 in 3.0 mi NW 16.1 mph - 0.00 in Snow Light Snow
7:53 AM 17.1 °F 3.6 °F 10.0 °F 74% 29.74 in 2.0 mi NW 12.7 mph - 0.00 in Snow Light Snow
7:57 AM 17.6 °F 3.2 °F 10.4 °F 73% 29.68 in 1.5 mi NW 15.0 mph - 0.00 in Snow Light Snow
8:14 AM 17.6 °F 2.2 °F 8.6 °F 68% 29.68 in 3.0 mi NNW 17.3 mph 24.2 mph 0.00 in Snow Light Snow
8:43 AM 17.6 °F 2.7 °F 10.4 °F 73% 29.70 in 1.8 mi NW 16.1 mph - 0.00 in Snow Light Snow
8:53 AM 16.0 °F -0.9 °F 8.1 °F 71% 29.77 in 1.5 mi NNW 19.6 mph 25.3 mph 0.00 in Snow Light Snow
9:03 AM 15.8 °F -1.1 °F 8.6 °F 73% 29.72 in 2.5 mi NW 19.6 mph - 0.00 in Snow Light Snow
9:12 AM 15.8 °F -1.1 °F 8.6 °F 73% 29.72 in 3.0 mi NW 19.6 mph - 0.00 in Snow Light Snow
9:26 AM 15.8 °F -0.6 °F 8.6 °F 73% 29.72 in 1.8 mi NW 18.4 mph - 0.00 in Snow Light Snow
9:33 AM 15.8 °F -0.6 °F 8.6 °F 73% 29.73 in 0.8 mi NW 18.4 mph 25.3 mph 0.00 in Snow Light Snow
9:53 AM 15.1 °F -1.6 °F 9.0 °F 77% 29.81 in 0.5 mi NW 18.4 mph - 0.00 in Snow Snow
10:12 AM 15.8 °F -1.1 °F 8.6 °F 73% 29.75 in 0.8 mi NW 19.6 mph - 0.00 in Snow Light Snow
10:25 AM 15.8 °F -0.6 °F 8.6 °F 73% 29.76 in 1.0 mi NW 18.4 mph - 0.00 in Snow Light Snow
10:42 AM 15.8 °F -1.1 °F 8.6 °F 73% 29.77 in 0.5 mi NW 19.6 mph 23.0 mph 0.00 in Snow Snow
10:53 AM 15.1 °F -2.0 °F 9.0 °F 77% 29.84 in 0.5 mi NW 19.6 mph - 0.00 in Snow Snow
11:30 AM 15.8 °F 0.9 °F 8.6 °F 73% 29.76 in 0.5 mi NNW 15.0 mph - 0.00 in Snow Snow
11:37 AM 15.8 °F -0.2 °F 8.6 °F 73% 29.75 in 0.5 mi NW 17.3 mph 23.0 mph 0.00 in Snow Snow
11:53 AM 15.1 °F -1.1 °F 8.1 °F 74% 29.83 in 0.8 mi NNW 17.3 mph 25.3 mph 0.00 in Snow Light Snow
12:02 PM 14.0 °F -3.4 °F 8.6 °F 79% 29.75 in 1.0 mi NW 19.6 mph 25.3 mph 0.00 in Snow Light Snow
12:10 PM 14.0 °F -3.9 °F 6.8 °F 73% 29.75 in 1.2 mi NNW 20.7 mph - 0.00 in Snow Light Snow
12:21 PM 14.0 °F -2.0 °F 8.6 °F 79% 29.76 in 1.0 mi NW 16.1 mph - 0.00 in Snow Light Snow
12:28 PM 14.0 °F -2.0 °F 6.8 °F 73% 29.75 in 1.2 mi NW 16.1 mph - 0.00 in Snow Light Snow
12:53 PM 15.1 °F 1.1 °F 8.1 °F 74% 29.82 in 1.0 mi NW 12.7 mph - 0.00 in Snow Light Snow
1:07 PM 14.0 °F -2.0 °F 5.0 °F 67% 29.71 in 2.0 mi North 16.1 mph 21.9 mph 0.00 in Snow Light Snow
1:20 PM 14.0 °F -0.8 °F 5.0 °F 67% 29.72 in 4.0 mi NNW 13.8 mph 21.9 mph 0.00 in Snow Light Snow
1:49 PM 14.0 °F -2.0 °F 6.8 °F 73% 29.73 in 1.8 mi NW 16.1 mph - 0.00 in Snow Light Snow
1:53 PM 14.0 °F -2.5 °F 6.1 °F 71% 29.87 in 1.2 mi NW 17.3 mph - 0.00 in Snow Light Snow
1:59 PM 12.2 °F -3.7 °F 6.8 °F 79% 29.74 in 0.8 mi NW 15.0 mph - 0.00 in Snow Light Snow
2:11 PM 12.2 °F -3.7 °F 6.8 °F 79% 29.75 in 1.0 mi NNW 15.0 mph - 0.00 in Snow Light Snow
2:41 PM 12.2 °F -4.3 °F 6.8 °F 79% 29.77 in 0.8 mi NW 16.1 mph - 0.00 in Snow Light Snow
2:53 PM 12.9 °F -4.9 °F 6.1 °F 74% 29.90 in 0.8 mi NNW 19.6 mph - 0.00 in Snow Light Snow
3:11 PM 12.2 °F -4.8 °F 6.8 °F 79% 29.76 in 0.8 mi NW 17.3 mph 24.2 mph 0.00 in Snow Light Snow
3:22 PM 12.2 °F -4.8 °F 5.0 °F 73% 29.77 in 1.0 mi NNW 17.3 mph 26.5 mph 0.00 in Snow Light Snow
3:31 PM 12.2 °F -3.7 °F 5.0 °F 73% 29.77 in 1.5 mi NNW 15.0 mph 25.3 mph 0.00 in Snow Light Snow
3:53 PM 12.0 °F -5.6 °F 5.0 °F 73% 29.93 in 1.2 mi NNW 18.4 mph - 0.00 in Snow Light Snow
4:14 PM 10.4 °F -7.2 °F 3.2 °F 73% 29.79 in 3.0 mi NNW 17.3 mph - 0.00 in Snow Light Snow
4:32 PM 10.4 °F -6.0 °F 3.2 °F 73% 29.79 in 1.8 mi NNW 15.0 mph 24.2 mph 0.00 in Snow Light Snow
4:53 PM 10.9 °F -5.4 °F 3.9 °F 73% 29.96 in 1.5 mi NW 15.0 mph - 0.00 in Snow Light Snow
5:16 PM 10.4 °F -6.6 °F 3.2 °F 73% 29.79 in 3.0 mi NW 16.1 mph - 0.00 in Snow Light Snow
5:34 PM 10.4 °F -6.6 °F 3.2 °F 73% 29.80 in 5.0 mi NNW 16.1 mph - 0.00 in Snow Light Snow
5:53 PM 10.0 °F -7.6 °F 1.9 °F 70% 30.01 in 10.0 mi NNW 17.3 mph 24.2 mph 0.00 in   Overcast
6:30 PM 10.4 °F -6.0 °F 3.2 °F 73% 29.83 in 2.5 mi NW 15.0 mph - 0.00 in Snow Light Snow
6:44 PM 10.4 °F -6.0 °F 1.4 °F 67% 29.83 in 4.0 mi NNW 15.0 mph 25.3 mph 0.00 in Snow Light Snow
6:53 PM 10.0 °F -3.7 °F 3.0 °F 73% 30.03 in 3.0 mi NW 10.4 mph - 0.00 in Snow Light Snow
7:00 PM 10.4 °F -4.8 °F 3.2 °F 73% 29.84 in 2.5 mi NW 12.7 mph - 0.00 in Snow Light Snow
7:05 PM 10.4 °F -5.4 °F 3.2 °F 73% 29.84 in 4.0 mi NW 13.8 mph - 0.00 in Snow Light Snow
7:53 PM 9.0 °F -8.5 °F -0.0 °F 67% 30.05 in 10.0 mi NNW 16.1 mph 24.2 mph 0.00 in   Overcast
8:53 PM 8.1 °F -7.0 °F -0.0 °F 70% 30.05 in 10.0 mi NW 11.5 mph - N/A   Overcast
9:53 PM 7.0 °F -13.1 °F -2.9 °F 64% 30.05 in 10.0 mi North 20.7 mph 28.8 mph N/A   Overcast
10:53 PM 6.1 °F -11.6 °F -2.9 °F 67% 30.07 in 10.0 mi NW 15.0 mph 27.6 mph N/A   Overcast
11:53 PM 6.1 °F -14.3 °F -4.0 °F 63% 30.07 in 10.0 mi NNW 20.7 mph 31.1 mph N/A   Overcast